[[{"header":{"parameterUnit":"m.s-1","parameterCategory":1,"la1":30.2991,"la2":30.254,"lo1":-89.0895,"lo2":-89.0444,"dy":0.0017,"dx":0.0017,"nx":28,"ny":28,"refTime":"2024-07-08T03:00:00:Z","depth":0,"parameterNumber":2,"parameterNumberName":"U-component_of_WINDS"},"data":[0,0,0,0,0,0,0,0,0,0,0,0,0,0,0,0,0,0,0,0,0,0,0,0,0,0,0,0,0,0,0,0,0,0,0,0,0,0,0,0,0,0,0,0,0,0,0,0,0,0,0,0,0,0,0,0,0,0,-3.8898,-3.8898,0,-3.8876,-3.8875,-3.8875,-3.8825,-3.8824,-3.8823,-3.8822,-3.8798,-3.8798,-3.8799,0,0,0,0,0,0,0,0,0,0,0,0,0,-3.8898,-3.8899,-3.8898,-3.8898,-3.8898,-3.8876,-3.8875,-3.8875,-3.8826,-3.8824,-3.8823,-3.8822,-3.8798,-3.8798,-3.8799,0,0,0,0,0,0,0,0,0,0,0,0,0,-3.8889,-3.8899,-3.8898,-3.887,-3.8868,-3.8876,-3.8875,-3.8875,-3.8826,-3.8824,-3.8823,-3.8821,-3.8798,-3.8798,-3.8799,-3.8832,0,0,-3.88,-3.88,0,0,0,0,0,0,0,0,-3.889,-3.8889,-3.8875,-3.8872,-3.8869,-3.8852,-3.8866,-3.886,-3.8826,-3.8842,-3.8822,-3.8821,-3.8817,-3.8816,-3.8815,-3.8831,-3.883,-3.88,-3.88,-3.8801,-3.8801,0,0,0,0,0,0,0,-3.8891,-3.889,-3.8889,-3.8874,-3.8871,-3.8859,-3.8856,-3.8865,-3.8838,-3.884,-3.8837,-3.8835,-3.8815,-3.8815,-3.8814,-3.8829,-3.88,-3.88,-3.8801,-3.8801,-3.8872,-3.8874,0,0,0,0,0,0,-3.8895,-3.8891,-3.889,-3.8888,-3.8876,-3.886,-3.8857,-3.8859,-3.8838,-3.8833,-3.8836,-3.8832,-3.8815,-3.8813,-3.8813,-3.885,-3.88,-3.8801,-3.8801,-3.8871,-3.8873,-3.8874,0,0,0,0,0,0,-3.8895,-3.8896,-3.8891,-3.8889,-3.8887,-3.8862,-3.8864,-3.8859,-3.8858,-3.8835,-3.883,-3.884,-3.8813,-3.8812,-3.8828,-3.8849,-3.8801,-3.8802,-3.8869,-3.8871,-3.8874,-3.8925,0,0,0,0,0,0,-3.8896,-3.8896,-3.8908,-3.8889,-3.8888,-3.8906,-3.8866,-3.886,-3.886,-3.8855,-3.8837,-3.8833,-3.8812,-3.8827,-3.8828,-3.8848,-3.8802,-3.8867,-3.887,-3.8873,-3.8921,-3.8929,-3.8936,0,0,0,0,0,-3.8896,-3.8923,-3.8909,-3.8909,-3.8902,-3.8907,-3.8906,-3.8882,-3.8861,-3.8873,-3.8859,-3.8833,-3.8847,-3.8829,-3.883,-3.885,-3.8865,-3.8869,-3.8873,-3.8918,-3.8928,-3.8935,0,0,0,0,0,0,-3.8943,-3.892,-3.8904,-3.8926,-3.8919,-3.8899,-3.8913,-3.8893,-3.8891,-3.8886,-3.8856,-3.8853,-3.8872,-3.8863,-3.8844,-3.8882,-3.8852,-3.8856,-3.8887,-3.8895,-3.8902,-3.8903,-3.8802,0,0,0,0,0,-3.8957,-3.8963,-3.8942,-3.8964,-3.8961,-3.8938,-3.8939,-3.8922,-3.8913,-3.891,-3.8896,-3.8889,-3.8891,-3.8893,-3.8894,-3.8921,-3.8916,-3.8936,-3.8943,-3.8949,-3.8952,-3.8966,-3.8974,-3.8886,-3.8886,-3.8886,0,0,-3.8984,-3.8972,-3.8977,-3.8973,-3.8966,-3.8973,-3.8936,-3.8945,-3.895,-3.8911,-3.8924,-3.8915,-3.8905,-3.8926,-3.8935,-3.8919,-3.8976,-3.8954,-3.8958,-3.8958,-3.897,-3.8979,-3.8986,-3.8889,-3.8888,-3.8888,0,0,-3.9036,-3.9028,-3.9045,-3.9039,-3.9029,-3.9014,-3.9018,-3.9002,-3.8994,-3.9008,-3.8979,-3.8985,-3.899,-3.8984,-3.8982,-3.9036,-3.9012,-3.9037,-3.9073,-3.9087,-3.9094,-3.91,-3.9118,-3.9125,-3.9041,-3.9041,-3.9041,0,-3.907,-3.908,-3.9056,-3.9067,-3.9066,-3.9034,-3.9051,-3.9046,-3.9037,-3.9037,-3.902,-3.9027,-3.9018,-3.9037,-3.9051,-3.9051,-3.9054,-3.9037,-3.9095,-3.9101,-3.9106,-3.9123,-3.913,-3.9044,-3.9043,-3.9043,-3.9043,0,-3.9123,-3.913,-3.9145,-3.9138,-3.9139,-3.9154,-3.9132,-3.9136,-3.912,-3.9107,-3.9122,-3.911,-3.9109,-3.9113,-3.9096,-3.9131,-3.9121,-3.91,-3.9069,-3.9117,-3.9133,-3.9139,-3.9048,-3.9047,-3.9046,-3.9045,0,0,-3.9201,-3.9183,-3.9188,-3.9185,-3.9173,-3.9178,-3.9192,-3.9191,-3.9195,-3.9191,-3.9201,-3.9208,-3.9189,-3.9187,-3.917,-3.9182,-3.9225,-3.916,-3.9159,-3.9171,-3.9262,-3.9277,-3.9285,-3.9211,-3.9212,-3.9213,-3.9263,0,-3.9249,-3.927,-3.9251,-3.9276,-3.9283,-3.9253,-3.9265,-3.9259,-3.9249,-3.9253,-3.9241,-3.9246,-3.9221,-3.9219,-3.9231,-3.9218,-3.9243,-3.9214,-3.9219,-3.922,-3.9221,-3.9293,-3.9308,-3.9355,-3.9269,-3.927,-3.9271,0,-3.9307,-3.9306,-3.9333,-3.932,-3.9322,-3.9333,-3.9332,-3.9337,-3.933,-3.9321,-3.932,-3.93,-3.9313,-3.9285,-3.9302,-3.9283,-3.9285,-3.9279,-3.9281,-3.9278,-3.9246,-3.9291,-3.9369,-3.9376,-3.928,-3.9279,-3.9279,0,-3.936,-3.9366,-3.9383,-3.9381,-3.9367,-3.9376,-3.937,-3.9362,-3.9364,-3.9363,-3.9364,-3.9365,-3.9365,-3.9366,-3.9347,-3.9329,-3.9367,-3.9337,-3.9359,-3.9359,-3.9366,-3.9365,-3.9444,-3.9371,-3.9371,-3.937,-3.937,0,-3.9415,-3.9431,-3.9406,-3.9416,-3.9435,-3.9413,-3.9432,-3.9424,-3.9418,-3.9425,-3.9401,-3.9409,-3.9385,-3.939,-3.9376,-3.9392,-3.9393,-3.9386,-3.9381,-3.9387,-3.9387,-3.9385,-3.9381,-3.9372,-3.9372,-3.9372,-3.9371,0,-3.9476,-3.946,-3.9476,-3.9462,-3.946,-3.9474,-3.9462,-3.9471,-3.946,-3.9471,-3.9472,-3.9454,-3.946,-3.9442,-3.9445,-3.9435,-3.9459,-3.945,-3.9461,-3.9457,-3.948,-3.9477,-3.9558,-3.9567,-3.949,-3.9491,-3.9492,0,-3.951,-3.9523,-3.9511,-3.9515,-3.9512,-3.9518,-3.952,-3.95,-3.9503,-3.9498,-3.9507,-3.9512,-3.9513,-3.9524,-3.9511,-3.9513,-3.9503,-3.9532,-3.9503,-3.9509,-3.9502,-3.9501,-3.9502,-3.9536,-3.9537,-3.9538,-3.9539,0,-3.9573,-3.9565,-3.9569,-3.9571,-3.9574,-3.9574,-3.9572,-3.9577,-3.9556,-3.956,-3.9566,-3.9568,-3.9572,-3.9576,-3.9576,-3.957,-3.9551,-3.9549,-3.9553,-3.9558,-3.9563,-3.956,-3.9475,-3.9546,-3.9545,-3.9545,-3.9544,-3.9544,-3.9621,-3.9631,-3.9625,-3.963,-3.9628,-3.9627,-3.9635,-3.9626,-3.963,-3.9632,-3.962,-3.9629,-3.9624,-3.9622,-3.9619,-3.9625,-3.9612,-3.962,-3.9621,-3.9623,-3.9626,-3.9565,-3.9626,-3.9625,-3.9625,-3.9625,-3.9625,0,-3.9682,-3.9677,-3.9682,-3.9682,-3.9686,-3.9669,-3.9667,-3.9672,-3.968,-3.9677,-3.968,-3.9688,-3.9692,-3.9681,-3.9684,-3.9692,-3.9683,-3.9693,-3.9691,-3.969,-3.9638,-3.9633,-3.97,-3.97,-3.97,-3.97,-3.97,-3.97,-3.9714,-3.973,-3.9722,-3.9736,-3.9732,-3.974,-3.974,-3.974,-3.9738,-3.9747,-3.9751,-3.9745,-3.9738,-3.9741,-3.9745,-3.9742,-3.9743,-3.9756,-3.975,-3.9701,-3.9694,-3.9686,-3.9681,-3.9757,-3.9757,-3.98,-3.9801,-3.9801]},{"header":{"parameterUnit":"m.s-1","parameterCategory":1,"la1":30.2991,"la2":30.254,"lo1":-89.0895,"lo2":-89.0444,"dy":0.0017,"dx":0.0017,"nx":28,"ny":28,"refTime":"2024-07-08T03:00:00:Z","depth":0,"parameterNumber":3,"parameterNumberName":"V-component_of_WINDS"},"data":[0,0,0,0,0,0,0,0,0,0,0,0,0,0,0,0,0,0,0,0,0,0,0,0,0,0,0,0,0,0,0,0,0,0,0,0,0,0,0,0,0,0,0,0,0,0,0,0,0,0,0,0,0,0,0,0,0,0,4.8222,4.8223,0,4.824,4.824,4.8241,4.8244,4.8244,4.8244,4.8244,4.826,4.8261,4.8261,0,0,0,0,0,0,0,0,0,0,0,0,0,4.8191,4.8191,4.8222,4.8223,4.8223,4.824,4.824,4.8241,4.8244,4.8244,4.8244,4.8244,4.826,4.8261,4.8261,0,0,0,0,0,0,0,0,0,0,0,0,0,4.8206,4.8191,4.8222,4.8227,4.8227,4.824,4.824,4.8241,4.8244,4.8244,4.8244,4.8244,4.826,4.8261,4.8261,4.827,0,0,4.8264,4.8264,0,0,0,0,0,0,0,0,4.8205,4.8207,4.8226,4.8226,4.8227,4.824,4.8235,4.825,4.8244,4.8238,4.8244,4.8244,4.8253,4.8255,4.8258,4.8271,4.8272,4.8264,4.8264,4.8265,4.8265,0,0,0,0,0,0,0,4.8204,4.8206,4.8229,4.8226,4.8227,4.8228,4.823,4.8238,4.8246,4.8238,4.8239,4.8241,4.8254,4.8258,4.8259,4.8272,4.8264,4.8265,4.8265,4.8265,4.8294,4.8294,0,0,0,0,0,0,4.8202,4.8205,4.8229,4.823,4.8216,4.8228,4.8231,4.8236,4.8246,4.8248,4.8241,4.8241,4.8256,4.8258,4.8259,4.8271,4.8265,4.8266,4.8266,4.8294,4.8294,4.8294,0,0,0,0,0,0,4.8202,4.8204,4.8228,4.8218,4.8221,4.8229,4.8235,4.8236,4.824,4.8248,4.825,4.8243,4.8256,4.8258,4.8268,4.8272,4.8266,4.8267,4.8293,4.8294,4.8294,4.8294,0,0,0,0,0,0,4.8201,4.8204,4.8208,4.8218,4.8221,4.8236,4.8235,4.8237,4.8242,4.8242,4.8251,4.8252,4.8256,4.8267,4.8269,4.8273,4.8267,4.8293,4.8294,4.8294,4.8294,4.8295,4.8295,0,0,0,0,0,4.82,4.8206,4.8208,4.8211,4.8226,4.8237,4.8239,4.8243,4.8242,4.8246,4.8251,4.8252,4.8271,4.8268,4.827,4.8274,4.8293,4.8293,4.8294,4.8294,4.8295,4.8295,0,0,0,0,0,0,4.8195,4.8208,4.8209,4.822,4.8227,4.8237,4.8242,4.8244,4.8251,4.8251,4.8256,4.8258,4.8268,4.8272,4.8268,4.8284,4.8282,4.8283,4.8281,4.8282,4.8282,4.8281,4.8268,0,0,0,0,0,4.8196,4.8204,4.8214,4.8222,4.8226,4.8233,4.8238,4.8241,4.8249,4.8252,4.8258,4.8265,4.8273,4.8277,4.8285,4.8295,4.8297,4.8299,4.83,4.83,4.8301,4.8307,4.8308,4.8296,4.8296,4.8296,0,0,4.8196,4.8204,4.8209,4.8222,4.8228,4.8236,4.8236,4.8244,4.825,4.8253,4.8263,4.8268,4.8276,4.8286,4.8291,4.829,4.8305,4.8301,4.8301,4.8302,4.8308,4.8309,4.831,4.8297,4.8296,4.8296,0,0,4.8201,4.8208,4.8216,4.8223,4.8233,4.8238,4.824,4.825,4.8254,4.8264,4.8267,4.8274,4.8286,4.8292,4.8297,4.8307,4.8308,4.8309,4.8312,4.8318,4.8319,4.832,4.8323,4.8325,4.831,4.831,4.831,0,4.8201,4.8213,4.822,4.8228,4.8234,4.8239,4.8247,4.8253,4.8264,4.8268,4.8267,4.8284,4.829,4.8302,4.8304,4.8308,4.831,4.8307,4.8318,4.8319,4.832,4.8324,4.8325,4.831,4.831,4.831,4.831,0,4.8212,4.8221,4.8226,4.8239,4.8245,4.8253,4.8261,4.8267,4.827,4.8275,4.8286,4.8293,4.8303,4.8306,4.8308,4.8318,4.8318,4.8317,4.8315,4.8321,4.8325,4.8326,4.831,4.831,4.831,4.831,0,0,4.8214,4.8231,4.8233,4.8239,4.8251,4.8258,4.8267,4.8277,4.8282,4.829,4.8297,4.8309,4.8309,4.8315,4.8318,4.8324,4.8331,4.8323,4.8323,4.8324,4.8343,4.8343,4.8345,4.8333,4.8333,4.8333,4.8343,0,4.8221,4.8237,4.8244,4.8257,4.8266,4.8271,4.8279,4.8287,4.8292,4.83,4.8306,4.8314,4.8314,4.8318,4.8323,4.8329,4.8335,4.8329,4.8339,4.834,4.8337,4.8346,4.8346,4.8355,4.8344,4.8344,4.8344,0,4.823,4.824,4.8255,4.8267,4.8271,4.8278,4.8288,4.8296,4.8305,4.8309,4.8316,4.8319,4.8329,4.8327,4.834,4.8335,4.834,4.8344,4.8344,4.8345,4.8342,4.8348,4.8358,4.8359,4.8347,4.8346,4.8346,0,4.8231,4.8247,4.8258,4.8263,4.8278,4.8283,4.8289,4.8298,4.8304,4.8313,4.8318,4.8327,4.8332,4.834,4.8346,4.8344,4.8359,4.8357,4.8362,4.8362,4.8364,4.8364,4.8375,4.8367,4.8367,4.8367,4.8367,0,4.8237,4.8246,4.8259,4.8266,4.8276,4.8284,4.8293,4.83,4.8308,4.8316,4.8321,4.8328,4.8336,4.8344,4.8349,4.8359,4.8362,4.8365,4.8366,4.8364,4.8364,4.8367,4.8367,4.8368,4.8368,4.8368,4.8368,0,4.8239,4.8248,4.8261,4.8274,4.8277,4.8284,4.8296,4.8302,4.8309,4.8319,4.8321,4.8331,4.8341,4.8348,4.8361,4.8364,4.8375,4.8376,4.8372,4.8373,4.8378,4.8377,4.8392,4.8394,4.8385,4.8385,4.8385,0,4.8243,4.825,4.8265,4.8271,4.8277,4.8287,4.8294,4.8302,4.8309,4.8321,4.8326,4.8337,4.8346,4.8362,4.837,4.838,4.8381,4.8385,4.8382,4.8381,4.8381,4.8381,4.8382,4.8386,4.8386,4.8386,4.8386,0,4.8248,4.8253,4.8263,4.8275,4.8283,4.8293,4.8302,4.8307,4.8317,4.8324,4.8335,4.8342,4.8356,4.8367,4.8378,4.8383,4.8386,4.8387,4.8389,4.8387,4.8384,4.8386,4.8374,4.8386,4.8386,4.8386,4.8386,4.8386,4.8251,4.8258,4.827,4.8282,4.829,4.8299,4.8307,4.8315,4.8324,4.8337,4.8341,4.8352,4.8362,4.8378,4.8384,4.8393,4.8392,4.8395,4.8395,4.8396,4.8396,4.8383,4.8395,4.8395,4.8395,4.8395,4.8395,0,4.8258,4.8266,4.8276,4.829,4.8299,4.8303,4.8314,4.8321,4.8331,4.8341,4.835,4.8363,4.8374,4.8383,4.8394,4.8399,4.8401,4.8402,4.8402,4.8403,4.8395,4.8393,4.8401,4.8401,4.8401,4.8401,4.8401,4.8401,4.8262,4.8274,4.828,4.8297,4.8305,4.8317,4.8323,4.8332,4.834,4.8355,4.8364,4.837,4.838,4.8392,4.8402,4.8404,4.8408,4.8409,4.8411,4.8404,4.8403,4.8403,4.84,4.8409,4.8409,4.8418,4.8418,4.8418]}]]